Погода в Астраханке

Погода в Астраханке : погода сейчас, прогноз погоды и архив. Всё, что Вы хотите узнать о погоде в Астраханке!

Хотите узнать прогноз погоды в Астраханке? Тогда Вам сюда: Погода в Астраханке

Поиск расширенной информации на нашем сайте:

Другие новости

Новости СМИ2

Главная страница сайта

Новости сайта

03.07.2017

Напоминаем, что на нашем специализированном сайте Метеоцентр.Азия вы можете получить высокодетализированные автоматические прогнозы погоды по пунктам России, СНГ и мира в авиационном формате (включающие направление и скорость ветра, видимость, явления погоды, количество и форму облачности, нижнюю и верхнюю границу облачности).


Погода в Астраханке - сегодня

Время (UTC), дата Ветер
(°,м/с) 
Видим.   Явления Облачность Т
(°С)
Тd
(°С)
f(%) Тe
(°С)
Pmin
(гПа)
dP
(гПа)
Po
(мм)
O2
(г/м3)
Тmin Tmax R s Состояние
почвы
03 18.08.17 050 (СВ) 20000 м    3/3 600 м 
[Sc diur, vesp]
+23.6 +19.8 79 +42  1014.1  -0.4  754  275           
06 18.08.17 080 (В) 20000 м    3/3 600 м 
[Sc diur, vesp]
+25 +18.9 69 +41  1013  -1  753  274           
09 18.08.17 030 (СВ) 20000 м    ясно 
+25.2 +17.6 63 +39  1012.5  -0.4  753  274    +25.3       
12 18.08.17 300 (СЗ) 20000 м    ясно 
+22 +17.9 78 +36  1013.5  0.8  753  277           
15 18.08.17 250 (З) 20000 м    ясно 
+19.2 +17.8 92 +34  1014.2  0.7  754  280           
18 18.08.17 230 (ЮЗ) 20000 м    ясно 
+16.6 +15.9 96 +27  1014.1  -0.2  754  283           
21 18.08.17 220 (ЮЗ) 20000 м    3/3 300 м 
[St]
+16 +15.5 97 +25  1014.7  0.6  754  284  +15.6        влажная 
00 19.08.17 200 (Ю) 4000 м  дымка{туман}  3/3 300 м 
[St]
+20.9 +19.2 90 +38  1015  0.5  755  278           
03 19.08.17 140 (ЮВ) 20000 м    3/3 600 м 
[Cu med, cong]
+27 +19.2 62 +44  1014  -0.8  754  272           
06 19.08.17 150 (ЮВ) 20000 м    ясно 
+28.7 +15.9 46 +39  1012.4  -1.6  753  271           
09 19.08.17 190 (Ю) 20000 м    ясно 
+27.6 +18.3 57 +42  1012  -0.4  752  271    +28.8       
12 19.08.17 210 (ЮЗ) 20000 м    ясно 
+21.8 +18.3 81 +37  1013.1  0.9  753  277           
15 19.08.17 200 (Ю) 20000 м    ясно 
+19.3 +17.9 92 +34  1013.5  0.3  753  279           
18 19.08.17 200 (Ю) 20000 м    ясно 
+17.7 +17.2 97 +31  1013.2  -0.4  753  281           
21 19.08.17 210 (ЮЗ) 0200 м  туман  10/10 200 м 
[St]
+17.6 +17.3 98 +31  1013.6  0.5  753  281  +17.4        влажная 
00 20.08.17 220 (ЮЗ) 20000 м  {туман}  1/1 300 м 
[St]
+20.6 +18.4 87 +36  1013.8  0.2  754  278           
03 20.08.17 190 (Ю) 20000 м    ясно 
+27 +17.3 55 +40  1012.4  -1.1  753  272           
06 20.08.17 190 (Ю) 20000 м    ясно 
+29.1 +16.5 47 +40  1010.8  -1.5  752  270           
09 20.08.17 190 (Ю) 20000 м    ясно 
+26.2 +16.8 56 +38  1010.2  -0.7  751  272    +29.1       
12 20.08.17 220 (ЮЗ) 20000 м    ясно 
+20 +16.9 82 +32  1011.5  1.1  752  279           
15 20.08.17 190 (Ю) 2000 м  дымка  3/3 200 м 
[St]
+18.1 +17.6 97 +32  1011.2  -0.3  752  280           
18 20.08.17 200 (Ю) 4000 м  дымка  4/4 200 м 
[St]
+18.3 +17.6 96 +32  1010.9  -0.3  751  280           
21 20.08.17 190 (Ю) 4000 м  дымка  8/8 200 м 
[St]
+17.5 +17.2 98 +32  1010.6  -0.3  751  281    +17.1      сухая 
00 21.08.17 200 (Ю) 10 км    10/4 200 м средняя, верхняя 
[St|Ac cuf|Cs]
+20.7 +18.7 88 +36  1010.5  751  277           
03 21.08.17 180 (Ю) 20000 м    10/8 600 м верхняя 
[St|Cs]
+24.1 +19.1 74 +41  1009.1  -1.3  750  273           
Время (UTC), дата Ветер
(°,м/с) 
Видим.   Явления Облачность Т
(°С)
Тd
(°С)
f(%) Тe
(°С)
Pmin
(гПа)
dP
(гПа)
Po
(мм)
O2
(г/м3)
Тmin Tmax R s Состояние
почвы

Для получения пояснительной информации подведите курсор к названию столбца.

ПОГОДА в Астраханке - архив

Всё, что Вы хотите узнать о погоде в Астраханке - удобно и подробно!

Выберите нужную дату (начиная с 1 января 2015* года) и нажмите кнопку "Найти".
Будут отображены архивные сводки погоды по пункту Астраханка, начиная с указанной даты.


Отображать данные в формате CSV (для использования в таблицах Excel)


Внимание! Наш архив погоды предназначен исключительно для личного некоммерческого использования в познавательных целях. Если Вам необходимы официальные справки о состоянии погоды (для производственных, юридических, коммерческих и т.п. целей), обращайтесь в органы Росгидромета.

*Примечание: данная дата относится к архиву по метеостанциям СССР (Россия, СНГ, Балтия).
Архив по метеостанциям Зарубежной Европы и Азии (кроме Китая) хранится 10 дней, по другим регионам земного шара (Китай, Африка, Америка, Австралия, Океания) - 1 день.

Астраханка - район местоположения метеостанции


Название, широта, долгота, высота метеостанции:
Астраханка 44.7°ш. 132.1°д. 78 м над ур. моря [Российская Федерация]

Дополнительная информация

В oтличие oт бoльшинства пoгoдных сайтoв мы публикуем пoдрoбную метеoинфoрмацию в детальнoм прoфессиoнальнoм фoрмате.

Характеристики температуры и влажнoсти вoздуха измеряются на высoте 2 м в тени вдали oт зданий и деревьев.
Скoрoсть ветра измеряется на высoте 10 м (на урoвне рoста челoвека скoрoсть ветра ниже в 1.5-2 раза). Если метеoстанция нахoдится в гoрoде или в лесу, тo скoрoсть ветра занижена на 2-4 м/с пo сравнению с oткрытым местoм. Скoрoсть ветра над акватoриями крупных рек и oзёр, а также на вершинах хoлмoв на 2-5 м/с выше, чем в oбычных услoвиях.
Атмoсфернoе давление в разных тoчках местнoсти мoжет значительнo oтличаться oт давления на метеoстанции, в зависимoсти oт услoвий рельефа (при пoдъёме на 10 м давление пoнижается примернo на 1 мм рт.ст.).